Time,TemperatureF,DewpointF,PressureIn,WindDirection,WindDirectionDegrees,WindSpeedMPH,WindSpeedGustMPH,Humidity,HourlyPrecipIn,Conditions,Clouds,dailyrainin,SoftwareType,DateUTC
2013-03-19 00:00:00,55.4,47.3,30.04,North,360,0.0,0.0,74,0.00,,,0.00,WUHU216DAVISVP2,2013-03-19 07:00:00,
2013-03-19 00:05:00,55.4,47.7,30.05,North,360,0.0,0.0,75,0.00,,,0.00,WUHU216DAVISVP2,2013-03-19 07:05:00,
2013-03-19 00:10:00,55.0,47.7,30.04,North,360,0.0,0.0,76,0.00,,,0.00,WUHU216DAVISVP2,2013-03-19 07:10:00,
2013-03-19 00:15:00,54.3,47.3,30.05,North,360,0.0,0.0,77,0.00,,,0.00,WUHU216DAVISVP2,2013-03-19 07:15:00,
2013-03-19 00:20:00,53.9,46.9,30.05,North,360,0.0,0.0,77,0.00,,,0.00,WUHU216DAVISVP2,2013-03-19 07:20:00,
2013-03-19 00:25:00,54.0,47.4,30.05,North,360,0.0,0.0,78,0.00,,,0.00,WUHU216DAVISVP2,2013-03-19 07:25:00,
2013-03-19 00:30:00,54.3,47.3,30.05,North,360,0.0,1.0,77,0.00,,,0.00,WUHU216DAVISVP2,2013-03-19 07:30:00,
2013-03-19 00:35:00,54.4,47.4,30.05,North,360,0.0,1.0,77,0.00,,,0.00,WUHU216DAVISVP2,2013-03-19 07:35:00,
2013-03-19 00:40:00,54.6,47.3,30.06,North,360,2.0,2.0,76,0.00,,,0.00,WUHU216DAVISVP2,2013-03-19 07:40:00,
2013-03-19 00:45:00,55.1,47.8,30.06,North,360,0.0,3.0,76,0.00,,,0.00,WUHU216DAVISVP2,2013-03-19 07:45:00,
2013-03-19 00:50:00,55.7,48.0,30.06,West,281,2.0,4.0,75,0.00,,,0.00,WUHU216DAVISVP2,2013-03-19 07:50:00,
2013-03-19 00:55:00,56.3,48.2,30.06,West,279,0.0,4.0,74,0.00,,,0.00,WUHU216DAVISVP2,2013-03-19 07:55:00,
2013-03-19 01:00:00,56.7,48.2,30.06,West,279,2.0,4.0,73,0.00,,,0.00,WUHU216DAVISVP2,2013-03-19 08:00:00,
2013-03-19 01:05:00,56.8,48.3,30.05,West,279,0.0,3.0,73,0.00,,,0.00,WUHU216DAVISVP2,2013-03-19 08:05:00,
2013-03-19 01:10:00,56.9,48.4,30.05,West,279,2.0,4.0,73,0.00,,,0.00,WUHU216DAVISVP2,2013-03-19 08:10:00,
2013-03-19 01:15:00,56.9,48.4,30.06,West,279,5.0,5.0,73,0.00,,,0.00,WUHU216DAVISVP2,2013-03-19 08:15:00,
2013-03-19 01:20:00,57.0,48.5,30.06,West,279,0.0,5.0,73,0.00,,,0.00,WUHU216DAVISVP2,2013-03-19 08:20:00,
2013-03-19 01:25:00,56.9,48.4,30.05,West,279,0.0,5.0,73,0.00,,,0.00,WUHU216DAVISVP2,2013-03-19 08:25:00,
2013-03-19 01:30:00,56.6,48.2,30.05,West,279,1.0,3.0,73,0.00,,,0.00,WUHU216DAVISVP2,2013-03-19 08:30:00,
2013-03-19 01:35:00,56.5,48.1,30.05,West,279,0.0,2.0,73,0.00,,,0.00,WUHU216DAVISVP2,2013-03-19 08:35:00,
2013-03-19 01:40:00,56.4,48.3,30.05,West,279,0.0,1.0,74,0.00,,,0.00,WUHU216DAVISVP2,2013-03-19 08:40:00,
2013-03-19 01:45:00,56.2,48.1,30.05,West,279,0.0,1.0,74,0.00,,,0.00,WUHU216DAVISVP2,2013-03-19 08:45:00,
2013-03-19 01:50:00,56.3,48.9,30.05,West,279,0.0,0.0,76,0.00,,,0.00,WUHU216DAVISVP2,2013-03-19 08:50:00,
2013-03-19 01:55:00,56.3,49.3,30.06,West,279,0.0,1.0,77,0.00,,,0.00,WUHU216DAVISVP2,2013-03-19 08:55:00,
2013-03-19 02:00:00,56.0,48.3,30.06,West,279,0.0,1.0,75,0.00,,,0.00,WUHU216DAVISVP2,2013-03-19 09:00:00,
2013-03-19 02:05:00,55.7,48.0,30.06,West,279,0.0,0.0,75,0.00,,,0.00,WUHU216DAVISVP2,2013-03-19 09:05:00,
2013-03-19 02:10:00,55.7,48.3,30.06,West,279,0.0,2.0,76,0.00,,,0.00,WUHU216DAVISVP2,2013-03-19 09:10:00,
2013-03-19 02:15:00,55.5,48.1,30.06,West,279,0.0,3.0,76,0.00,,,0.00,WUHU216DAVISVP2,2013-03-19 09:15:00,
2013-03-19 02:20:00,55.4,48.0,30.06,West,279,2.0,3.0,76,0.00,,,0.00,WUHU216DAVISVP2,2013-03-19 09:20:00,
2013-03-19 02:25:00,55.4,48.4,30.07,West,279,1.0,4.0,77,0.00,,,0.00,WUHU216DAVISVP2,2013-03-19 09:25:00,
2013-03-19 02:30:00,55.3,48.3,30.07,West,279,1.0,4.0,77,0.00,,,0.00,WUHU216DAVISVP2,2013-03-19 09:30:00,
2013-03-19 02:35:00,55.2,48.2,30.06,West,279,2.0,3.0,77,0.00,,,0.00,WUHU216DAVISVP2,2013-03-19 09:35:00,
2013-03-19 02:40:00,55.1,48.1,30.06,West,279,0.0,2.0,77,0.00,,,0.00,WUHU216DAVISVP2,2013-03-19 09:40:00,
2013-03-19 02:45:00,55.1,48.1,30.06,West,279,0.0,2.0,77,0.00,,,0.00,WUHU216DAVISVP2,2013-03-19 09:45:00,
2013-03-19 02:50:00,55.0,48.0,30.06,West,279,1.0,2.0,77,0.00,,,0.00,WUHU216DAVISVP2,2013-03-19 09:50:00,
2013-03-19 02:55:00,54.8,47.8,30.06,West,279,0.0,2.0,77,0.00,,,0.00,WUHU216DAVISVP2,2013-03-19 09:55:00,
2013-03-19 03:00:00,54.8,48.1,30.05,West,279,0.0,2.0,78,0.00,,,0.00,WUHU216DAVISVP2,2013-03-19 10:00:00,
2013-03-19 03:05:00,54.8,47.8,30.05,West,279,0.0,2.0,77,0.00,,,0.00,WUHU216DAVISVP2,2013-03-19 10:05:00,
2013-03-19 03:10:00,54.8,47.8,30.05,West,279,0.0,2.0,77,0.00,,,0.00,WUHU216DAVISVP2,2013-03-19 10:10:00,
2013-03-19 03:15:00,54.8,47.8,30.05,West,279,0.0,3.0,77,0.00,,,0.00,WUHU216DAVISVP2,2013-03-19 10:15:00,
2013-03-19 03:20:00,54.7,47.7,30.05,West,279,0.0,3.0,77,0.00,,,0.00,WUHU216DAVISVP2,2013-03-19 10:20:00,
2013-03-19 03:25:00,54.4,47.4,30.05,WNW,302,0.0,3.0,77,0.00,,,0.00,WUHU216DAVISVP2,2013-03-19 10:25:00,
2013-03-19 03:30:00,54.0,47.4,30.05,WNW,302,0.0,3.0,78,0.00,,,0.00,WUHU216DAVISVP2,2013-03-19 10:30:00,
2013-03-19 03:35:00,53.8,47.2,30.05,WNW,302,0.0,3.0,78,0.00,,,0.00,WUHU216DAVISVP2,2013-03-19 10:35:00,
2013-03-19 03:40:00,53.6,47.3,30.05,WNW,302,2.0,2.0,79,0.00,,,0.00,WUHU216DAVISVP2,2013-03-19 10:40:00,
2013-03-19 03:45:00,53.6,47.3,30.05,WNW,302,2.0,3.0,79,0.00,,,0.00,WUHU216DAVISVP2,2013-03-19 10:45:00,
2013-03-19 03:50:00,53.5,47.2,30.05,WNW,302,2.0,3.0,79,0.00,,,0.00,WUHU216DAVISVP2,2013-03-19 10:50:00,
2013-03-19 03:55:00,53.3,47.0,30.05,WNW,302,0.0,3.0,79,0.00,,,0.00,WUHU216DAVISVP2,2013-03-19 10:55:00,
2013-03-19 04:00:00,53.3,47.0,30.05,WNW,302,0.0,3.0,79,0.00,,,0.00,WUHU216DAVISVP2,2013-03-19 11:00:00,
2013-03-19 04:05:00,53.6,48.6,30.05,WNW,302,0.0,3.0,83,0.00,,,0.00,WUHU216DAVISVP2,2013-03-19 11:05:00,
2013-03-19 04:10:00,53.3,47.6,30.05,WNW,302,0.0,2.0,81,0.00,,,0.00,WUHU216DAVISVP2,2013-03-19 11:10:00,
2013-03-19 04:15:00,52.7,46.7,30.05,WNW,302,0.0,2.0,80,0.00,,,0.00,WUHU216DAVISVP2,2013-03-19 11:15:00,
2013-03-19 04:20:00,52.4,46.4,30.05,WNW,302,0.0,2.0,80,0.00,,,0.00,WUHU216DAVISVP2,2013-03-19 11:20:00,
2013-03-19 04:25:00,52.0,46.4,30.05,WNW,302,0.0,0.0,81,0.00,,,0.00,WUHU216DAVISVP2,2013-03-19 11:25:00,
2013-03-19 04:30:00,52.0,46.7,30.05,WNW,302,0.0,0.0,82,0.00,,,0.00,WUHU216DAVISVP2,2013-03-19 11:30:00,
2013-03-19 04:35:00,51.6,46.3,30.05,WNW,302,0.0,0.0,82,0.00,,,0.00,WUHU216DAVISVP2,2013-03-19 11:35:00,
2013-03-19 04:40:00,51.3,46.3,30.05,WNW,302,0.0,0.0,83,0.00,,,0.00,WUHU216DAVISVP2,2013-03-19 11:40:00,
2013-03-19 04:45:00,51.1,46.1,30.05,WNW,302,0.0,0.0,83,0.00,,,0.00,WUHU216DAVISVP2,2013-03-19 11:45:00,
2013-03-19 04:50:00,51.0,46.0,30.05,WNW,302,0.0,0.0,83,0.00,,,0.00,WUHU216DAVISVP2,2013-03-19 11:50:00,
2013-03-19 04:55:00,50.9,46.2,30.06,WNW,302,0.0,0.0,84,0.00,,,0.00,WUHU216DAVISVP2,2013-03-19 11:55:00,
2013-03-19 05:00:00,50.8,46.1,30.06,WNW,302,0.0,2.0,84,0.00,,,0.00,WUHU216DAVISVP2,2013-03-19 12:00:00,
2013-03-19 05:05:00,50.9,46.2,30.06,WNW,302,0.0,2.0,84,0.00,,,0.00,WUHU216DAVISVP2,2013-03-19 12:05:00,
2013-03-19 05:10:00,50.9,45.9,30.06,WNW,302,0.0,1.0,83,0.00,,,0.00,WUHU216DAVISVP2,2013-03-19 12:10:00,
2013-03-19 05:15:00,51.0,46.0,30.06,WNW,302,0.0,0.0,83,0.00,,,0.00,WUHU216DAVISVP2,2013-03-19 12:15:00,
2013-03-19 05:20:00,50.7,46.0,30.06,WNW,302,0.0,1.0,84,0.00,,,0.00,WUHU216DAVISVP2,2013-03-19 12:20:00,
2013-03-19 05:25:00,50.6,45.9,30.06,WNW,302,0.0,1.0,84,0.00,,,0.00,WUHU216DAVISVP2,2013-03-19 12:25:00,
2013-03-19 05:30:00,50.3,45.7,30.06,WNW,302,0.0,1.0,84,0.00,,,0.00,WUHU216DAVISVP2,2013-03-19 12:30:00,
2013-03-19 05:35:00,50.4,46.1,30.06,WNW,302,0.0,1.0,85,0.00,,,0.00,WUHU216DAVISVP2,2013-03-19 12:35:00,
2013-03-19 05:40:00,50.2,45.6,30.06,WNW,302,0.0,0.0,84,0.00,,,0.00,WUHU216DAVISVP2,2013-03-19 12:40:00,
2013-03-19 05:45:00,50.0,45.7,30.06,WNW,302,0.0,0.0,85,0.00,,,0.00,WUHU216DAVISVP2,2013-03-19 12:45:00,
2013-03-19 05:50:00,49.6,45.3,30.06,WNW,302,0.0,0.0,85,0.00,,,0.00,WUHU216DAVISVP2,2013-03-19 12:50:00,
2013-03-19 05:55:00,49.3,45.3,30.06,WNW,302,0.0,0.0,86,0.00,,,0.00,WUHU216DAVISVP2,2013-03-19 12:55:00,
2013-03-19 06:00:00,49.1,45.1,30.06,WNW,302,0.0,0.0,86,0.00,,,0.00,WUHU216DAVISVP2,2013-03-19 13:00:00,
2013-03-19 06:05:00,48.8,44.8,30.06,WNW,302,1.0,1.0,86,0.00,,,0.00,WUHU216DAVISVP2,2013-03-19 13:05:00,
2013-03-19 06:10:00,48.4,44.7,30.06,WNW,302,0.0,2.0,87,0.00,,,0.00,WUHU216DAVISVP2,2013-03-19 13:10:00,
2013-03-19 06:15:00,48.3,44.6,30.06,WNW,302,0.0,2.0,87,0.00,,,0.00,WUHU216DAVISVP2,2013-03-19 13:15:00,
2013-03-19 06:20:00,48.6,45.2,30.06,WNW,302,0.0,0.0,88,0.00,,,0.00,WUHU216DAVISVP2,2013-03-19 13:20:00,
2013-03-19 06:25:00,48.6,45.2,30.06,WNW,302,0.0,0.0,88,0.00,,,0.00,WUHU216DAVISVP2,2013-03-19 13:25:00,
2013-03-19 06:30:00,48.5,45.1,30.07,WNW,302,0.0,0.0,88,0.00,,,0.00,WUHU216DAVISVP2,2013-03-19 13:30:00,
2013-03-19 06:35:00,48.5,45.1,30.07,WNW,302,0.0,0.0,88,0.00,,,0.00,WUHU216DAVISVP2,2013-03-19 13:35:00,
2013-03-19 06:40:00,48.3,44.9,30.07,WNW,302,0.0,0.0,88,0.00,,,0.00,WUHU216DAVISVP2,2013-03-19 13:40:00,
2013-03-19 06:45:00,48.2,44.8,30.08,WNW,302,0.0,0.0,88,0.00,,,0.00,WUHU216DAVISVP2,2013-03-19 13:45:00,
2013-03-19 06:50:00,48.1,44.7,30.08,WNW,302,0.0,1.0,88,0.00,,,0.00,WUHU216DAVISVP2,2013-03-19 13:50:00,
2013-03-19 06:55:00,48.5,45.4,30.08,WNW,302,0.0,2.0,89,0.00,,,0.00,WUHU216DAVISVP2,2013-03-19 13:55:00,
2013-03-19 07:00:00,48.6,45.2,30.08,WNW,302,0.0,2.0,88,0.00,,,0.00,WUHU216DAVISVP2,2013-03-19 14:00:00,
2013-03-19 07:05:00,48.9,45.5,30.08,WNW,301,0.0,2.0,88,0.00,,,0.00,WUHU216DAVISVP2,2013-03-19 14:05:00,
2013-03-19 07:10:00,49.0,45.3,30.08,WNW,300,0.0,2.0,87,0.00,,,0.00,WUHU216DAVISVP2,2013-03-19 14:10:00,
2013-03-19 07:15:00,49.1,45.4,30.08,WNW,300,0.0,2.0,87,0.00,,,0.00,WUHU216DAVISVP2,2013-03-19 14:15:00,
2013-03-19 07:20:00,49.0,45.3,30.08,WNW,300,0.0,0.0,87,0.00,,,0.00,WUHU216DAVISVP2,2013-03-19 14:20:00,
2013-03-19 07:25:00,49.0,45.3,30.09,WNW,300,0.0,0.0,87,0.00,,,0.00,WUHU216DAVISVP2,2013-03-19 14:25:00,
2013-03-19 07:30:00,49.3,45.6,30.09,WNW,300,0.0,1.0,87,0.00,,,0.00,WUHU216DAVISVP2,2013-03-19 14:30:00,
2013-03-19 07:35:00,49.6,45.9,30.09,WNW,300,0.0,1.0,87,0.00,,,0.00,WUHU216DAVISVP2,2013-03-19 14:35:00,
2013-03-19 07:40:00,49.9,46.2,30.09,WNW,300,0.0,0.0,87,0.00,,,0.00,WUHU216DAVISVP2,2013-03-19 14:40:00,
2013-03-19 07:45:00,50.5,46.5,30.09,WNW,300,0.0,1.0,86,0.00,,,0.00,WUHU216DAVISVP2,2013-03-19 14:45:00,
2013-03-19 07:50:00,51.2,46.8,30.09,WNW,300,0.0,2.0,85,0.00,,,0.00,WUHU216DAVISVP2,2013-03-19 14:50:00,
2013-03-19 07:55:00,51.8,47.1,30.09,WNW,300,0.0,2.0,84,0.00,,,0.00,WUHU216DAVISVP2,2013-03-19 14:55:00,
2013-03-19 08:00:00,52.1,47.1,30.09,WNW,300,0.0,2.0,83,0.00,,,0.00,WUHU216DAVISVP2,2013-03-19 15:00:00,
2013-03-19 08:05:00,52.4,47.1,30.09,WNW,298,0.0,1.0,82,0.00,,,0.00,WUHU216DAVISVP2,2013-03-19 15:05:00,
2013-03-19 08:10:00,52.6,47.3,30.09,WNW,298,0.0,0.0,82,0.00,,,0.00,WUHU216DAVISVP2,2013-03-19 15:10:00,
2013-03-19 08:15:00,52.8,47.5,30.10,WNW,298,0.0,0.0,82,0.00,,,0.00,WUHU216DAVISVP2,2013-03-19 15:15:00,
2013-03-19 08:20:00,53.0,48.0,30.10,WNW,298,0.0,0.0,83,0.00,,,0.00,WUHU216DAVISVP2,2013-03-19 15:20:00,
2013-03-19 08:25:00,52.8,48.1,30.10,WNW,298,0.0,0.0,84,0.00,,,0.00,WUHU216DAVISVP2,2013-03-19 15:25:00,
2013-03-19 08:30:00,52.9,48.2,30.10,WNW,298,0.0,0.0,84,0.00,,,0.00,WUHU216DAVISVP2,2013-03-19 15:30:00,
2013-03-19 08:35:00,53.6,48.6,30.10,WNW,298,0.0,0.0,83,0.00,,,0.00,WUHU216DAVISVP2,2013-03-19 15:35:00,
2013-03-19 08:40:00,54.0,48.7,30.10,WNW,298,0.0,0.0,82,0.00,,,0.00,WUHU216DAVISVP2,2013-03-19 15:40:00,
2013-03-19 08:45:00,54.6,48.9,30.10,WNW,298,0.0,0.0,81,0.00,,,0.00,WUHU216DAVISVP2,2013-03-19 15:45:00,
2013-03-19 08:50:00,55.2,49.2,30.10,WNW,298,0.0,0.0,80,0.00,,,0.00,WUHU216DAVISVP2,2013-03-19 15:50:00,
2013-03-19 08:55:00,55.8,49.1,30.10,WNW,298,0.0,0.0,78,0.00,,,0.00,WUHU216DAVISVP2,2013-03-19 15:55:00,
2013-03-19 09:00:00,56.1,49.4,30.10,WNW,298,0.0,0.0,78,0.00,,,0.00,WUHU216DAVISVP2,2013-03-19 16:00:00,
2013-03-19 09:05:00,56.4,49.4,30.10,WNW,298,0.0,2.0,77,0.00,,,0.00,WUHU216DAVISVP2,2013-03-19 16:05:00,
2013-03-19 09:10:00,56.6,48.9,30.10,WNW,298,0.0,2.0,75,0.00,,,0.00,WUHU216DAVISVP2,2013-03-19 16:10:00,
2013-03-19 09:15:00,57.0,49.2,30.10,WNW,298,0.0,1.0,75,0.00,,,0.00,WUHU216DAVISVP2,2013-03-19 16:15:00,
2013-03-19 09:20:00,58.0,49.9,30.10,WNW,298,1.0,2.0,74,0.00,,,0.00,WUHU216DAVISVP2,2013-03-19 16:20:00,
2013-03-19 09:25:00,58.4,49.5,30.11,WNW,298,0.0,3.0,72,0.00,,,0.00,WUHU216DAVISVP2,2013-03-19 16:25:00,
2013-03-19 09:30:00,59.0,50.1,30.11,WNW,298,0.0,3.0,72,0.00,,,0.00,WUHU216DAVISVP2,2013-03-19 16:30:00,
2013-03-19 09:35:00,59.0,49.7,30.10,WNW,299,0.0,0.0,71,0.00,,,0.00,WUHU216DAVISVP2,2013-03-19 16:35:00,
2013-03-19 09:40:00,59.5,50.6,30.10,WNW,299,0.0,1.0,72,0.00,,,0.00,WUHU216DAVISVP2,2013-03-19 16:40:00,
2013-03-19 09:45:00,60.0,50.7,30.11,WNW,299,0.0,1.0,71,0.00,,,0.00,WUHU216DAVISVP2,2013-03-19 16:45:00,
2013-03-19 09:50:00,60.5,50.8,30.11,WNW,300,0.0,4.0,70,0.00,,,0.00,WUHU216DAVISVP2,2013-03-19 16:50:00,
2013-03-19 09:55:00,60.2,50.1,30.11,WNW,300,0.0,4.0,69,0.00,,,0.00,WUHU216DAVISVP2,2013-03-19 16:55:00,
2013-03-19 10:00:00,60.5,50.8,30.11,WNW,300,0.0,1.0,70,0.00,,,0.00,WUHU216DAVISVP2,2013-03-19 17:00:00,
2013-03-19 10:05:00,61.0,50.1,30.11,WNW,300,3.0,3.0,67,0.00,,,0.00,WUHU216DAVISVP2,2013-03-19 17:05:00,
2013-03-19 10:10:00,61.6,50.7,30.10,WNW,300,0.0,3.0,67,0.00,,,0.00,WUHU216DAVISVP2,2013-03-19 17:10:00,
2013-03-19 10:15:00,62.0,50.3,30.10,WNW,300,0.0,3.0,65,0.00,,,0.00,WUHU216DAVISVP2,2013-03-19 17:15:00,
2013-03-19 10:20:00,63.0,50.8,30.11,WNW,300,1.0,2.0,64,0.00,,,0.00,WUHU216DAVISVP2,2013-03-19 17:20:00,
2013-03-19 10:25:00,62.6,50.0,30.11,WNW,300,0.0,3.0,63,0.00,,,0.00,WUHU216DAVISVP2,2013-03-19 17:25:00,
2013-03-19 10:30:00,63.7,50.6,30.11,WNW,300,0.0,3.0,62,0.00,,,0.00,WUHU216DAVISVP2,2013-03-19 17:30:00,
2013-03-19 10:35:00,63.8,49.8,30.11,WNW,300,0.0,3.0,60,0.00,,,0.00,WUHU216DAVISVP2,2013-03-19 17:35:00,
2013-03-19 10:40:00,63.8,50.2,30.11,WNW,300,0.0,3.0,61,0.00,,,0.00,WUHU216DAVISVP2,2013-03-19 17:40:00,
2013-03-19 10:45:00,65.3,51.2,30.10,WNW,300,0.0,1.0,60,0.00,,,0.00,WUHU216DAVISVP2,2013-03-19 17:45:00,
2013-03-19 10:50:00,66.0,50.5,30.11,NW,313,0.0,3.0,57,0.00,,,0.00,WUHU216DAVISVP2,2013-03-19 17:50:00,
2013-03-19 10:55:00,65.8,51.7,30.11,NW,314,0.0,3.0,60,0.00,,,0.00,WUHU216DAVISVP2,2013-03-19 17:55:00,
2013-03-19 11:00:00,66.7,50.6,30.10,NW,314,0.0,1.0,56,0.00,,,0.00,WUHU216DAVISVP2,2013-03-19 18:00:00,
2013-03-19 11:05:00,66.4,50.8,30.10,NW,314,0.0,4.0,57,0.00,,,0.00,WUHU216DAVISVP2,2013-03-19 18:05:00,
2013-03-19 11:10:00,67.2,50.1,30.10,NW,314,0.0,4.0,54,0.00,,,0.00,WUHU216DAVISVP2,2013-03-19 18:10:00,
2013-03-19 11:15:00,66.6,49.4,30.10,NW,314,2.0,3.0,54,0.00,,,0.00,WUHU216DAVISVP2,2013-03-19 18:15:00,
2013-03-19 11:20:00,67.0,50.3,30.10,NW,319,0.0,3.0,55,0.00,,,0.00,WUHU216DAVISVP2,2013-03-19 18:20:00,
2013-03-19 11:25:00,68.3,51.5,30.10,NW,319,0.0,3.0,55,0.00,,,0.00,WUHU216DAVISVP2,2013-03-19 18:25:00,
2013-03-19 11:30:00,68.8,49.9,30.10,South,173,4.0,4.0,51,0.00,,,0.00,WUHU216DAVISVP2,2013-03-19 18:30:00,
2013-03-19 11:35:00,68.8,49.4,30.10,South,173,0.0,5.0,50,0.00,,,0.00,WUHU216DAVISVP2,2013-03-19 18:35:00,
2013-03-19 11:40:00,69.3,50.4,30.10,South,175,4.0,5.0,51,0.00,,,0.00,WUHU216DAVISVP2,2013-03-19 18:40:00,
2013-03-19 11:45:00,70.1,48.9,30.10,SSE,159,5.0,5.0,47,0.00,,,0.00,WUHU216DAVISVP2,2013-03-19 18:45:00,
2013-03-19 11:50:00,70.1,48.3,30.10,SW,232,4.0,6.0,46,0.00,,,0.00,WUHU216DAVISVP2,2013-03-19 18:50:00,
2013-03-19 11:55:00,69.8,49.2,30.10,SW,234,2.0,6.0,48,0.00,,,0.00,WUHU216DAVISVP2,2013-03-19 18:55:00,
2013-03-19 12:00:00,69.7,48.6,30.10,SSW,209,2.0,4.0,47,0.00,,,0.00,WUHU216DAVISVP2,2013-03-19 19:00:00,
2013-03-19 12:05:00,70.2,48.4,30.10,SSW,203,4.0,4.0,46,0.00,,,0.00,WUHU216DAVISVP2,2013-03-19 19:05:00,
2013-03-19 12:10:00,69.8,46.8,30.10,SSW,196,0.0,4.0,44,0.00,,,0.00,WUHU216DAVISVP2,2013-03-19 19:10:00,
2013-03-19 12:15:00,71.3,48.8,30.09,South,188,0.0,4.0,45,0.00,,,0.00,WUHU216DAVISVP2,2013-03-19 19:15:00,
2013-03-19 12:20:00,71.2,48.7,30.09,WNW,300,0.0,1.0,45,0.00,,,0.00,WUHU216DAVISVP2,2013-03-19 19:20:00,
2013-03-19 12:25:00,71.6,49.1,30.09,West,262,0.0,2.0,45,0.00,,,0.00,WUHU216DAVISVP2,2013-03-19 19:25:00,
2013-03-19 12:30:00,71.5,48.4,30.09,SSW,196,4.0,6.0,44,0.00,,,0.00,WUHU216DAVISVP2,2013-03-19 19:30:00,
2013-03-19 12:35:00,72.7,49.5,30.09,SSE,161,1.0,6.0,44,0.00,,,0.00,WUHU216DAVISVP2,2013-03-19 19:35:00,
2013-03-19 12:40:00,72.8,49.0,30.08,South,174,0.0,5.0,43,0.00,,,0.00,WUHU216DAVISVP2,2013-03-19 19:40:00,
2013-03-19 12:45:00,71.7,48.0,30.08,South,174,0.0,5.0,43,0.00,,,0.00,WUHU216DAVISVP2,2013-03-19 19:45:00,
2013-03-19 12:50:00,72.2,47.8,30.08,South,174,0.0,1.0,42,0.00,,,0.00,WUHU216DAVISVP2,2013-03-19 19:50:00,
2013-03-19 12:55:00,73.2,50.6,30.08,South,178,0.0,1.0,45,0.00,,,0.00,WUHU216DAVISVP2,2013-03-19 19:55:00,
2013-03-19 13:00:00,74.2,50.9,30.08,SSE,153,1.0,4.0,44,0.00,,,0.00,WUHU216DAVISVP2,2013-03-19 20:00:00,
2013-03-19 13:05:00,73.1,47.9,30.08,SSE,155,0.0,6.0,41,0.00,,,0.00,WUHU216DAVISVP2,2013-03-19 20:05:00,
2013-03-19 13:10:00,72.6,46.8,30.08,West,265,0.0,6.0,40,0.00,,,0.00,WUHU216DAVISVP2,2013-03-19 20:10:00,
2013-03-19 13:15:00,74.5,49.2,30.08,SSW,196,6.0,6.0,41,0.00,,,0.00,WUHU216DAVISVP2,2013-03-19 20:15:00,
2013-03-19 13:20:00,72.9,47.1,30.08,WSW,248,0.0,6.0,40,0.00,,,0.00,WUHU216DAVISVP2,2013-03-19 20:20:00,
2013-03-19 13:25:00,73.4,48.8,30.07,SSE,154,0.0,6.0,42,0.00,,,0.00,WUHU216DAVISVP2,2013-03-19 20:25:00,
2013-03-19 13:30:00,73.5,49.0,30.07,SSE,157,0.0,4.0,42,0.00,,,0.00,WUHU216DAVISVP2,2013-03-19 20:30:00,
2013-03-19 13:35:00,74.6,48.7,30.07,SSE,147,0.0,10.0,40,0.00,,,0.00,WUHU216DAVISVP2,2013-03-19 20:35:00,
2013-03-19 13:40:00,74.9,48.3,30.07,East,86,0.0,10.0,39,0.00,,,0.00,WUHU216DAVISVP2,2013-03-19 20:40:00,
2013-03-19 13:45:00,73.8,49.9,30.07,South,176,4.0,10.0,43,0.00,,,0.00,WUHU216DAVISVP2,2013-03-19 20:45:00,
2013-03-19 13:50:00,74.9,50.2,30.07,SSE,157,8.0,9.0,42,0.00,,,0.00,WUHU216DAVISVP2,2013-03-19 20:50:00,
2013-03-19 13:55:00,73.2,48.0,30.06,East,91,1.0,9.0,41,0.00,,,0.00,WUHU216DAVISVP2,2013-03-19 20:55:00,
2013-03-19 14:00:00,75.0,47.5,30.06,ESE,116,4.0,8.0,38,0.00,,,0.00,WUHU216DAVISVP2,2013-03-19 21:00:00,
2013-03-19 14:05:00,74.9,49.5,30.05,SE,145,0.0,8.0,41,0.00,,,0.00,WUHU216DAVISVP2,2013-03-19 21:05:00,
2013-03-19 14:10:00,76.0,51.8,30.06,SE,128,0.0,9.0,43,0.00,,,0.00,WUHU216DAVISVP2,2013-03-19 21:10:00,
2013-03-19 14:15:00,75.8,51.1,30.06,ESE,121,4.0,9.0,42,0.00,,,0.00,WUHU216DAVISVP2,2013-03-19 21:15:00,
2013-03-19 14:20:00,76.3,51.5,30.06,ESE,120,0.0,9.0,42,0.00,,,0.00,WUHU216DAVISVP2,2013-03-19 21:20:00,
2013-03-19 14:25:00,76.8,51.3,30.05,SE,127,7.0,9.0,41,0.00,,,0.00,WUHU216DAVISVP2,2013-03-19 21:25:00,
2013-03-19 14:30:00,76.2,52.7,30.05,ESE,123,0.0,8.0,44,0.00,,,0.00,WUHU216DAVISVP2,2013-03-19 21:30:00,
2013-03-19 14:35:00,76.1,50.6,30.05,SSW,200,0.0,9.0,41,0.00,,,0.00,WUHU216DAVISVP2,2013-03-19 21:35:00,
2013-03-19 14:40:00,75.6,50.2,30.05,South,186,0.0,9.0,41,0.00,,,0.00,WUHU216DAVISVP2,2013-03-19 21:40:00,
2013-03-19 14:45:00,75.5,48.0,30.05,SSE,156,1.0,6.0,38,0.00,,,0.00,WUHU216DAVISVP2,2013-03-19 21:45:00,
2013-03-19 14:50:00,75.8,49.7,30.04,SSW,192,0.0,6.0,40,0.00,,,0.00,WUHU216DAVISVP2,2013-03-19 21:50:00,
2013-03-19 14:55:00,75.7,50.3,30.04,SSE,166,2.0,4.0,41,0.00,,,0.00,WUHU216DAVISVP2,2013-03-19 21:55:00,
2013-03-19 15:00:00,75.7,46.7,30.04,SSW,211,0.0,5.0,36,0.00,,,0.00,WUHU216DAVISVP2,2013-03-19 22:00:00,
2013-03-19 15:05:00,76.8,49.9,30.04,ESE,108,6.0,7.0,39,0.00,,,0.00,WUHU216DAVISVP2,2013-03-19 22:05:00,
2013-03-19 15:10:00,77.0,50.0,30.04,SE,143,4.0,9.0,39,0.00,,,0.00,WUHU216DAVISVP2,2013-03-19 22:10:00,
2013-03-19 15:15:00,77.1,50.1,30.04,SE,137,0.0,9.0,39,0.00,,,0.00,WUHU216DAVISVP2,2013-03-19 22:15:00,
2013-03-19 15:20:00,76.5,48.9,30.04,East,98,1.0,7.0,38,0.00,,,0.00,WUHU216DAVISVP2,2013-03-19 22:20:00,
2013-03-19 15:25:00,76.1,49.2,30.03,SSE,155,2.0,8.0,39,0.00,,,0.00,WUHU216DAVISVP2,2013-03-19 22:25:00,
2013-03-19 15:30:00,76.8,50.6,30.03,ESE,117,0.0,8.0,40,0.00,,,0.00,WUHU216DAVISVP2,2013-03-19 22:30:00,
2013-03-19 15:35:00,76.9,49.2,30.03,NNE,27,6.0,6.0,38,0.00,,,0.00,WUHU216DAVISVP2,2013-03-19 22:35:00,
2013-03-19 15:40:00,76.7,49.8,30.03,NE,44,1.0,6.0,39,0.00,,,0.00,WUHU216DAVISVP2,2013-03-19 22:40:00,
2013-03-19 15:45:00,76.4,49.5,30.03,ENE,63,6.0,6.0,39,0.00,,,0.00,WUHU216DAVISVP2,2013-03-19 22:45:00,
2013-03-19 15:50:00,76.9,50.0,30.03,ENE,78,0.0,6.0,39,0.00,,,0.00,WUHU216DAVISVP2,2013-03-19 22:50:00,
2013-03-19 15:56:00,76.4,49.5,30.03,SSE,153,1.0,5.0,39,0.00,,,0.00,WUHU216DAVISVP2,2013-03-19 22:56:00,
2013-03-19 16:01:00,77.1,48.7,30.03,SSE,150,4.0,6.0,37,0.00,,,0.00,WUHU216DAVISVP2,2013-03-19 23:01:00,
2013-03-19 16:06:00,76.3,49.4,30.03,SSE,150,0.0,6.0,39,0.00,,,0.00,WUHU216DAVISVP2,2013-03-19 23:06:00,
2013-03-19 16:10:00,77.0,49.3,30.03,ESE,106,0.0,4.0,38,0.00,,,0.00,WUHU216DAVISVP2,2013-03-19 23:10:00,
2013-03-19 16:16:00,75.9,49.1,30.03,NW,313,0.0,4.0,39,0.00,,,0.00,WUHU216DAVISVP2,2013-03-19 23:16:00,
2013-03-19 16:20:00,76.4,49.5,30.03,ENE,69,1.0,4.0,39,0.00,,,0.00,WUHU216DAVISVP2,2013-03-19 23:20:00,
2013-03-19 16:25:00,77.5,47.5,30.03,SE,124,0.0,8.0,35,0.00,,,0.00,WUHU216DAVISVP2,2013-03-19 23:25:00,
2013-03-19 16:31:00,76.7,49.8,30.02,SSE,163,2.0,8.0,39,0.00,,,0.00,WUHU216DAVISVP2,2013-03-19 23:31:00,
2013-03-19 16:35:00,76.9,49.2,30.02,SSE,166,2.0,7.0,38,0.00,,,0.00,WUHU216DAVISVP2,2013-03-19 23:35:00,
2013-03-19 16:40:00,76.2,48.6,30.02,ESE,110,4.0,6.0,38,0.00,,,0.00,WUHU216DAVISVP2,2013-03-19 23:40:00,
2013-03-19 16:45:00,76.3,48.1,30.02,ESE,102,0.0,5.0,37,0.00,,,0.00,WUHU216DAVISVP2,2013-03-19 23:45:00,
2013-03-19 16:50:00,76.2,48.0,30.02,ESE,102,0.0,5.0,37,0.00,,,0.00,WUHU216DAVISVP2,2013-03-19 23:50:00,
2013-03-19 16:55:00,76.6,48.2,30.02,ESE,102,0.0,1.0,37,0.00,,,0.00,WUHU216DAVISVP2,2013-03-19 23:55:00,
2013-03-19 17:00:00,76.3,49.4,30.02,ESE,113,1.0,5.0,39,0.00,,,0.00,WUHU216DAVISVP2,2013-03-20 00:00:00,
2013-03-19 17:05:00,75.9,49.1,30.02,SE,135,0.0,5.0,39,0.00,,,0.00,WUHU216DAVISVP2,2013-03-20 00:05:00,
2013-03-19 17:10:00,75.5,48.7,30.01,SE,144,0.0,4.0,39,0.00,,,0.00,WUHU216DAVISVP2,2013-03-20 00:10:00,
2013-03-19 17:15:00,75.9,48.3,30.01,ESE,104,0.0,2.0,38,0.00,,,0.00,WUHU216DAVISVP2,2013-03-20 00:15:00,
2013-03-19 17:20:00,76.2,49.4,30.01,SE,126,2.0,4.0,39,0.00,,,0.00,WUHU216DAVISVP2,2013-03-20 00:20:00,
2013-03-19 17:25:00,75.7,49.0,30.01,SSE,147,2.0,5.0,39,0.00,,,0.00,WUHU216DAVISVP2,2013-03-20 00:25:00,
2013-03-19 17:30:00,75.5,48.7,30.01,SSE,147,0.0,5.0,39,0.00,,,0.00,WUHU216DAVISVP2,2013-03-20 00:30:00,
2013-03-19 17:35:00,75.5,48.7,30.01,SE,134,1.0,6.0,39,0.00,,,0.00,WUHU216DAVISVP2,2013-03-20 00:35:00,
2013-03-19 17:40:00,75.4,48.6,30.01,ESE,114,0.0,7.0,39,0.00,,,0.00,WUHU216DAVISVP2,2013-03-20 00:40:00,
2013-03-19 17:45:00,75.1,48.3,30.01,SSE,150,1.0,7.0,39,0.00,,,0.00,WUHU216DAVISVP2,2013-03-20 00:45:00,
2013-03-19 17:50:00,74.8,48.8,30.01,SSE,150,0.0,5.0,40,0.00,,,0.00,WUHU216DAVISVP2,2013-03-20 00:50:00,
2013-03-19 17:55:00,74.5,49.2,30.01,SSE,150,0.0,5.0,41,0.00,,,0.00,WUHU216DAVISVP2,2013-03-20 00:55:00,
2013-03-19 18:01:00,74.1,48.8,30.01,SSE,150,0.0,4.0,41,0.00,,,0.00,WUHU216DAVISVP2,2013-03-20 01:01:00,
2013-03-19 18:05:00,74.0,48.7,30.01,SSE,150,0.0,1.0,41,0.00,,,0.00,WUHU216DAVISVP2,2013-03-20 01:05:00,
2013-03-19 18:10:00,73.6,49.1,30.01,SSE,150,0.0,1.0,42,0.00,,,0.00,WUHU216DAVISVP2,2013-03-20 01:10:00,
2013-03-19 18:15:00,73.2,49.4,30.01,SSE,150,0.0,1.0,43,0.00,,,0.00,WUHU216DAVISVP2,2013-03-20 01:15:00,
2013-03-19 18:20:00,73.0,49.2,30.02,SSE,150,0.0,1.0,43,0.00,,,0.00,WUHU216DAVISVP2,2013-03-20 01:20:00,
2013-03-19 18:25:00,72.8,49.6,30.01,SSE,150,0.0,0.0,44,0.00,,,0.00,WUHU216DAVISVP2,2013-03-20 01:25:00,
2013-03-19 18:30:00,72.8,48.9,30.01,SSE,150,1.0,1.0,43,0.00,,,0.00,WUHU216DAVISVP2,2013-03-20 01:30:00,
2013-03-19 18:35:00,73.0,49.8,30.01,SSE,150,5.0,5.0,44,0.00,,,0.00,WUHU216DAVISVP2,2013-03-20 01:35:00,
2013-03-19 18:40:00,72.7,49.5,30.01,SSE,150,0.0,5.0,44,0.00,,,0.00,WUHU216DAVISVP2,2013-03-20 01:40:00,
2013-03-19 18:45:00,72.5,49.9,30.02,SSE,150,0.0,5.0,45,0.00,,,0.00,WUHU216DAVISVP2,2013-03-20 01:45:00,
2013-03-19 18:50:00,72.2,50.3,30.02,SSE,150,0.0,4.0,46,0.00,,,0.00,WUHU216DAVISVP2,2013-03-20 01:50:00,
2013-03-19 18:55:00,72.0,50.1,30.02,SSE,150,1.0,4.0,46,0.00,,,0.00,WUHU216DAVISVP2,2013-03-20 01:55:00,
2013-03-19 19:00:00,71.9,49.4,30.02,SSE,150,0.0,4.0,45,0.00,,,0.00,WUHU216DAVISVP2,2013-03-20 02:00:00,
2013-03-19 19:05:00,71.7,49.8,30.02,SSE,150,0.0,4.0,46,0.00,,,0.00,WUHU216DAVISVP2,2013-03-20 02:05:00,
2013-03-19 19:10:00,71.3,50.0,30.02,SSE,150,0.0,2.0,47,0.00,,,0.00,WUHU216DAVISVP2,2013-03-20 02:10:00,
2013-03-19 19:15:00,71.2,49.3,30.02,SSE,150,0.0,4.0,46,0.00,,,0.00,WUHU216DAVISVP2,2013-03-20 02:15:00,
2013-03-19 19:20:00,71.1,48.7,30.02,SSE,150,0.0,4.0,45,0.00,,,0.00,WUHU216DAVISVP2,2013-03-20 02:20:00,
2013-03-19 19:25:00,71.0,48.6,30.02,SSE,163,0.0,5.0,45,0.00,,,0.00,WUHU216DAVISVP2,2013-03-20 02:25:00,
2013-03-19 19:30:00,70.8,48.4,30.02,SSE,163,0.0,5.0,45,0.00,,,0.00,WUHU216DAVISVP2,2013-03-20 02:30:00,
2013-03-19 19:35:00,70.8,48.4,30.02,SSE,163,0.0,1.0,45,0.00,,,0.00,WUHU216DAVISVP2,2013-03-20 02:35:00,
2013-03-19 19:40:00,70.6,48.2,30.02,SSE,163,0.0,1.0,45,0.00,,,0.00,WUHU216DAVISVP2,2013-03-20 02:40:00,
2013-03-19 19:45:00,70.1,48.4,30.02,SSE,163,0.0,0.0,46,0.00,,,0.00,WUHU216DAVISVP2,2013-03-20 02:45:00,
2013-03-19 19:50:00,69.8,48.7,30.03,SSE,163,0.0,0.0,47,0.00,,,0.00,WUHU216DAVISVP2,2013-03-20 02:50:00,
2013-03-19 19:55:00,69.0,49.0,30.03,SSE,163,0.0,0.0,49,0.00,,,0.00,WUHU216DAVISVP2,2013-03-20 02:55:00,
2013-03-19 20:00:00,68.7,49.3,30.03,SSE,163,0.0,0.0,50,0.00,,,0.00,WUHU216DAVISVP2,2013-03-20 03:00:00,
2013-03-19 20:05:00,68.5,49.1,30.03,SSE,163,0.0,0.0,50,0.00,,,0.00,WUHU216DAVISVP2,2013-03-20 03:05:00,
2013-03-19 20:10:00,68.1,48.8,30.04,SSE,163,0.0,0.0,50,0.00,,,0.00,WUHU216DAVISVP2,2013-03-20 03:10:00,
2013-03-19 20:15:00,67.2,51.4,30.04,SSE,163,0.0,0.0,57,0.00,,,0.00,WUHU216DAVISVP2,2013-03-20 03:15:00,
2013-03-19 20:20:00,66.5,51.3,30.04,SSE,163,0.0,0.0,58,0.00,,,0.00,WUHU216DAVISVP2,2013-03-20 03:20:00,
2013-03-19 20:25:00,66.5,50.8,30.04,SSE,163,0.0,0.0,57,0.00,,,0.00,WUHU216DAVISVP2,2013-03-20 03:25:00,
2013-03-19 20:30:00,66.9,51.2,30.05,SSE,163,0.0,0.0,57,0.00,,,0.00,WUHU216DAVISVP2,2013-03-20 03:30:00,
2013-03-19 20:35:00,67.2,51.0,30.05,SSE,163,0.0,1.0,56,0.00,,,0.00,WUHU216DAVISVP2,2013-03-20 03:35:00,
2013-03-19 20:40:00,67.5,50.8,30.06,SSE,163,0.0,1.0,55,0.00,,,0.00,WUHU216DAVISVP2,2013-03-20 03:40:00,
2013-03-19 20:45:00,67.7,50.9,30.06,SSE,163,0.0,1.0,55,0.00,,,0.00,WUHU216DAVISVP2,2013-03-20 03:45:00,
2013-03-19 20:50:00,68.1,50.8,30.07,NW,309,0.0,4.0,54,0.00,,,0.00,WUHU216DAVISVP2,2013-03-20 03:50:00,
2013-03-19 20:55:00,68.0,50.8,30.08,NW,311,10.0,10.0,54,0.00,,,0.00,WUHU216DAVISVP2,2013-03-20 03:55:00,
2013-03-19 21:00:00,67.9,50.7,30.08,NW,311,4.0,15.0,54,0.00,,,0.00,WUHU216DAVISVP2,2013-03-20 04:00:00,
2013-03-19 21:05:00,68.4,47.4,30.08,NW,319,4.0,19.0,47,0.00,,,0.00,WUHU216DAVISVP2,2013-03-20 04:05:00,
2013-03-19 21:10:00,68.6,47.0,30.09,NNW,340,10.0,19.0,46,0.00,,,0.00,WUHU216DAVISVP2,2013-03-20 04:10:00,
2013-03-19 21:15:00,68.4,44.9,30.09,NNW,328,9.0,16.0,43,0.00,,,0.00,WUHU216DAVISVP2,2013-03-20 04:15:00,
2013-03-19 21:20:00,68.1,44.0,30.10,NW,313,13.0,19.0,42,0.00,,,0.00,WUHU216DAVISVP2,2013-03-20 04:20:00,
2013-03-19 21:25:00,67.9,43.9,30.10,NW,315,15.0,19.0,42,0.00,,,0.00,WUHU216DAVISVP2,2013-03-20 04:25:00,
2013-03-19 21:30:00,67.6,44.3,30.10,WNW,288,15.0,19.0,43,0.00,,,0.00,WUHU216DAVISVP2,2013-03-20 04:30:00,
2013-03-19 21:35:00,67.2,44.5,30.11,NW,313,7.0,20.0,44,0.00,,,0.00,WUHU216DAVISVP2,2013-03-20 04:35:00,
2013-03-19 21:40:00,67.0,44.3,30.11,NW,319,6.0,21.0,44,0.00,,,0.00,WUHU216DAVISVP2,2013-03-20 04:40:00,
2013-03-19 21:45:00,66.8,44.8,30.11,NW,317,14.0,21.0,45,0.00,,,0.00,WUHU216DAVISVP2,2013-03-20 04:45:00,
2013-03-19 21:50:00,66.6,45.1,30.11,NW,325,12.0,21.0,46,0.00,,,0.00,WUHU216DAVISVP2,2013-03-20 04:50:00,
2013-03-19 21:55:00,66.3,45.4,30.12,NW,315,20.0,26.0,47,0.00,,,0.00,WUHU216DAVISVP2,2013-03-20 04:55:00,
2013-03-19 22:00:00,65.9,46.2,30.12,WNW,286,13.0,26.0,49,0.00,,,0.00,WUHU216DAVISVP2,2013-03-20 05:00:00,
2013-03-19 22:05:00,65.3,46.8,30.12,NNW,337,12.0,23.0,51,0.00,,,0.00,WUHU216DAVISVP2,2013-03-20 05:05:00,
2013-03-19 22:10:00,64.8,47.3,30.13,WNW,300,6.0,24.0,53,0.00,,,0.00,WUHU216DAVISVP2,2013-03-20 05:10:00,
2013-03-19 22:15:00,64.2,48.3,30.13,NNW,331,8.0,24.0,56,0.00,,,0.00,WUHU216DAVISVP2,2013-03-20 05:15:00,
2013-03-19 22:20:00,63.8,48.7,30.13,WNW,292,8.0,22.0,58,0.00,,,0.00,WUHU216DAVISVP2,2013-03-20 05:20:00,
2013-03-19 22:25:00,63.4,48.8,30.13,NNW,333,8.0,22.0,59,0.00,,,0.00,WUHU216DAVISVP2,2013-03-20 05:25:00,
2013-03-19 22:30:00,63.0,49.0,30.13,NW,319,14.0,22.0,60,0.00,,,0.00,WUHU216DAVISVP2,2013-03-20 05:30:00,
2013-03-19 22:35:00,62.7,48.8,30.13,NNW,328,10.0,18.0,60,0.00,,,0.00,WUHU216DAVISVP2,2013-03-20 05:35:00,
2013-03-19 22:40:00,62.6,48.7,30.13,North,349,8.0,18.0,60,0.00,,,0.00,WUHU216DAVISVP2,2013-03-20 05:40:00,
2013-03-19 22:45:00,62.7,48.3,30.13,NNW,332,12.0,17.0,59,0.00,,,0.00,WUHU216DAVISVP2,2013-03-20 05:45:00,
2013-03-19 22:50:00,62.7,48.3,30.12,NW,324,10.0,17.0,59,0.00,,,0.00,WUHU216DAVISVP2,2013-03-20 05:50:00,
2013-03-19 22:55:00,62.6,48.2,30.12,NW,317,12.0,17.0,59,0.00,,,0.00,WUHU216DAVISVP2,2013-03-20 05:55:00,
2013-03-19 23:00:00,62.5,48.6,30.13,NNW,333,2.0,17.0,60,0.00,,,0.00,WUHU216DAVISVP2,2013-03-20 06:00:00,
2013-03-19 23:05:00,62.4,48.5,30.13,NNW,344,7.0,17.0,60,0.00,,,0.00,WUHU216DAVISVP2,2013-03-20 06:05:00,
2013-03-19 23:10:00,62.4,48.9,30.13,North,350,2.0,11.0,61,0.00,,,0.00,WUHU216DAVISVP2,2013-03-20 06:10:00,
2013-03-19 23:15:00,62.3,48.4,30.13,NW,321,2.0,12.0,60,0.00,,,0.00,WUHU216DAVISVP2,2013-03-20 06:15:00,
2013-03-19 23:20:00,62.2,48.7,30.13,NNW,343,3.0,12.0,61,0.00,,,0.00,WUHU216DAVISVP2,2013-03-20 06:20:00,
2013-03-19 23:25:00,62.0,48.5,30.13,NW,325,8.0,10.0,61,0.00,,,0.00,WUHU216DAVISVP2,2013-03-20 06:25:00,
2013-03-19 23:30:00,61.8,48.8,30.13,NNW,347,7.0,13.0,62,0.00,,,0.00,WUHU216DAVISVP2,2013-03-20 06:30:00,
2013-03-19 23:35:00,61.6,49.0,30.13,North,355,12.0,13.0,63,0.00,,,0.00,WUHU216DAVISVP2,2013-03-20 06:35:00,
2013-03-19 23:40:00,61.2,50.3,30.13,NNW,340,9.0,14.0,67,0.00,,,0.00,WUHU216DAVISVP2,2013-03-20 06:40:00,
2013-03-19 23:45:00,60.5,50.8,30.13,North,5,5.0,14.0,70,0.00,,,0.00,WUHU216DAVISVP2,2013-03-20 06:45:00,
2013-03-19 23:50:00,60.0,50.7,30.12,NNE,24,1.0,11.0,71,0.00,,,0.00,WUHU216DAVISVP2,2013-03-20 06:50:00,
2013-03-19 23:55:00,59.8,50.5,30.11,NNE,22,4.0,11.0,71,0.00,,,0.00,WUHU216DAVISVP2,2013-03-20 06:55:00,